Home > Time Zones > World Clock > Weather > Yemen > Aden > Past weeks

Flag for Yemen Weather past 2 weeks in Aden, Yemen

Now
93 °F

Sandstorm.


Feels Like: 98 °F
Forecast: 84 / 92 °F
Wind: 20 mph from West

Location: Aden

Current Time: Jul 25, 2014 at 5:44:42 PM

Latest Report: Jul 25, 2014 at 5:00 PM


Visibility: 2 mi

Pressure: 29.50 "Hg

Humidity: 44%

Dew point: 68 °F

Location of AdenLocation

Historic Weather in Aden — Graph

°F

Aden temperature yesterday

Maximum temperature yesterday: 95 °F (at 4:00 PM)
Minimum temperature yesterday: 88 °F (at 4:00 AM)
Average temperature yesterday: 90 °F

Past Weeks' High & Low Weather Summary

 TemperatureHumidityPressure
High99 °F (Jul 11, 4:00 PM)75% (Jul 17, 4:00 AM)29.77 "Hg (Jul 17, 4:00 AM)
Low84 °F (Jul 13, 5:00 AM)25% (Jul 11, 5:00 PM)29.47 "Hg (Jul 18, 5:00 PM)
Average91 °F54%29.60 "Hg
* Reported Jul 10 5:00 PM — Jul 25 5:00 PM, Aden, Weather by CustomWeather, © 2014

Note: Actual official high and low records may vary slightly from our data, if they occured in-between our weather recording intervals... More about our weather records

Advertising

Aden weather history for previous 24 hours

 ConditionsComfort  
Time TempWeatherWind HumidityBarometerVisibility
5:00 PM
Jul 25
93 °FSandstorm.20 mph44%29.50 "Hg2 mi
4:00 PM91 °FSandstorm.24 mph46%29.47 "Hg2 mi
3:00 PM91 °FClear.28 mph46%29.53 "Hg1 mi
2:00 PM93 °FClear.28 mph44%29.56 "Hg1 mi
12:00 PM93 °FDuststorm.17 mph47%29.62 "Hg2 mi
11:00 AM93 °FDuststorm.12 mph53%29.65 "Hg2 mi
10:00 AM91 °FDuststorm.3 mph56%29.65 "Hg2 mi
9:00 AM90 °FScattered clouds.9 mph63%29.65 "Hg2 mi
8:00 AM88 °FPartly sunny.16 mph66%29.65 "Hg3 mi
7:00 AM88 °FSandstorm.23 mph66%29.62 "Hg3 mi
6:00 AM88 °FSandstorm.22 mph66%29.62 "Hg2 mi
5:00 AM88 °FSandstorm.29 mph55%29.59 "Hg2 mi
4:00 AM88 °FSandstorm.31 mph70%29.56 "Hg3 mi
3:00 AM88 °FPassing clouds.17 mph70%29.56 "Hg3 mi
2:00 AM86 °FDuststorm.17 mph70%29.56 "Hg3 mi
1:00 AM90 °FDuststorm.3 mph55%29.59 "Hg3 mi
12:00 AM90 °FDuststorm.5 mph55%29.59 "Hg3 mi
11:00 PM
Jul 24
90 °FDuststorm.5 mph59%29.59 "Hg3 mi
10:00 PM91 °FDuststorm.3 mph52%29.59 "Hg3 mi
9:00 PM91 °FDuststorm.2 mph52%29.59 "Hg3 mi
8:00 PM91 °FDuststorm.5 mph49%29.56 "Hg3 mi
7:00 PM91 °FPassing clouds.5 mph52%29.53 "Hg3 mi
6:00 PM93 °FDuststorm.3 mph53%29.53 "Hg3 mi
5:00 PM95 °FDuststorm.6 mph50%29.53 "Hg3 mi
Weather by CustomWeather, © 2014

See weather overviewHow to use our weather pages